TimeEDT,TemperatureF,Dew PointF,Humidity,Sea Level PressureIn,VisibilityMPH,Wind Direction,Wind SpeedMPH,Gust SpeedMPH,PrecipitationIn,Events,Conditions,WindDirDegrees,DateUTC
12:06 AM,37.4,35.6,93,30.20,10.0,Calm,Calm,-,N/A,,Clear,0,2012-10-12 04:06:00
12:27 AM,35.6,35.6,100,30.20,10.0,Calm,Calm,-,N/A,,Clear,0,2012-10-12 04:27:00
12:48 AM,35.6,35.6,100,30.20,10.0,Calm,Calm,-,N/A,,Clear,0,2012-10-12 04:48:00
1:09 AM,35.6,35.6,100,30.19,10.0,Calm,Calm,-,N/A,,Clear,0,2012-10-12 05:09:00
1:30 AM,35.6,35.6,100,30.19,10.0,Calm,Calm,-,N/A,,Clear,0,2012-10-12 05:30:00
1:54 AM,35.6,33.8,93,30.19,10.0,Calm,Calm,-,N/A,,Clear,0,2012-10-12 05:54:00
2:15 AM,35.6,33.8,93,30.19,10.0,Calm,Calm,-,N/A,,Clear,0,2012-10-12 06:15:00
2:36 AM,35.6,35.6,100,30.18,10.0,Calm,Calm,-,N/A,,Clear,0,2012-10-12 06:36:00
2:57 AM,35.6,35.6,100,30.18,10.0,Calm,Calm,-,N/A,,Clear,0,2012-10-12 06:57:00
3:18 AM,35.6,33.8,93,30.18,10.0,Calm,Calm,-,N/A,,Clear,0,2012-10-12 07:18:00
3:39 AM,35.6,33.8,93,30.17,10.0,Calm,Calm,-,N/A,,Clear,0,2012-10-12 07:39:00
4:00 AM,35.6,33.8,93,30.17,10.0,Calm,Calm,-,N/A,,Clear,0,2012-10-12 08:00:00
4:21 AM,33.8,33.8,100,30.17,10.0,Calm,Calm,-,N/A,,Clear,0,2012-10-12 08:21:00
4:42 AM,33.8,33.8,100,30.17,10.0,Calm,Calm,-,N/A,,Clear,0,2012-10-12 08:42:00
5:06 AM,33.8,32.0,93,30.17,10.0,Calm,Calm,-,N/A,,Clear,0,2012-10-12 09:06:00
5:48 AM,33.8,32.0,93,30.17,10.0,Calm,Calm,-,N/A,,Clear,0,2012-10-12 09:48:00
6:09 AM,33.8,32.0,93,30.17,10.0,Calm,Calm,-,N/A,,Clear,0,2012-10-12 10:09:00
6:30 AM,33.8,32.0,93,30.17,10.0,Calm,Calm,-,N/A,,Clear,0,2012-10-12 10:30:00
6:51 AM,32.0,32.0,100,30.16,10.0,Calm,Calm,-,N/A,,Clear,0,2012-10-12 10:51:00
7:12 AM,33.8,32.0,93,30.17,7.0,Calm,Calm,-,N/A,,Clear,0,2012-10-12 11:12:00
7:33 AM,33.8,32.0,93,30.18,7.0,Calm,Calm,-,N/A,,Clear,0,2012-10-12 11:33:00
8:15 AM,35.6,33.8,93,30.19,7.0,Calm,Calm,-,N/A,,Clear,0,2012-10-12 12:15:00
8:36 AM,37.4,37.4,100,30.20,10.0,Calm,Calm,-,N/A,,Clear,0,2012-10-12 12:36:00
9:00 AM,42.8,41.0,93,30.21,10.0,Calm,Calm,-,N/A,,Clear,0,2012-10-12 13:00:00
9:21 AM,44.6,42.8,93,30.21,10.0,Calm,Calm,-,N/A,,Clear,0,2012-10-12 13:21:00
9:42 AM,50.0,44.6,82,30.21,10.0,Calm,Calm,-,N/A,,Clear,0,2012-10-12 13:42:00
10:03 AM,55.4,42.8,63,30.21,10.0,West,8.1,-,N/A,,Clear,270,2012-10-12 14:03:00
10:24 AM,59.0,37.4,45,30.22,10.0,WNW,11.5,-,N/A,,Clear,290,2012-10-12 14:24:00
10:45 AM,60.8,37.4,42,30.22,10.0,WNW,11.5,18.4,N/A,,Clear,290,2012-10-12 14:45:00
11:06 AM,62.6,37.4,39,30.23,10.0,NW,10.4,24.2,N/A,,Clear,320,2012-10-12 15:06:00
12:09 PM,62.6,37.4,39,30.23,10.0,WNW,11.5,16.1,N/A,,Clear,300,2012-10-12 16:09:00
12:30 PM,64.4,37.4,37,30.22,10.0,WNW,10.4,-,N/A,,Clear,300,2012-10-12 16:30:00
12:51 PM,64.4,37.4,37,30.23,10.0,WNW,12.7,19.6,N/A,,Clear,290,2012-10-12 16:51:00
1:15 PM,64.4,39.2,40,30.22,10.0,NW,12.7,19.6,N/A,,Clear,310,2012-10-12 17:15:00
1:36 PM,64.4,39.2,40,30.22,10.0,NNW,8.1,19.6,N/A,,Clear,330,2012-10-12 17:36:00
1:57 PM,64.4,39.2,40,30.21,10.0,NW,13.8,23.0,N/A,,Scattered Clouds,320,2012-10-12 17:57:00
2:18 PM,64.4,39.2,40,30.21,10.0,NW,12.7,17.3,N/A,,Scattered Clouds,310,2012-10-12 18:18:00
2:39 PM,62.6,39.2,42,30.21,10.0,WNW,10.4,21.9,N/A,,Clear,300,2012-10-12 18:39:00
3:00 PM,62.6,41.0,45,30.22,10.0,NW,12.7,21.9,N/A,,Clear,320,2012-10-12 19:00:00
3:21 PM,62.6,41.0,45,30.23,10.0,NNW,16.1,24.2,N/A,,Clear,340,2012-10-12 19:21:00
3:42 PM,60.8,39.2,45,30.26,10.0,WNW,16.1,23.0,N/A,,Clear,300,2012-10-12 19:42:00
4:03 PM,59.0,35.6,42,30.27,10.0,NNW,13.8,24.2,N/A,,Clear,330,2012-10-12 20:03:00
4:24 PM,55.4,32.0,41,30.28,10.0,NW,13.8,21.9,N/A,,Clear,310,2012-10-12 20:24:00
4:45 PM,55.4,33.8,44,30.29,10.0,NNW,11.5,23.0,N/A,,Clear,330,2012-10-12 20:45:00
5:06 PM,55.4,32.0,41,30.29,10.0,North,9.2,16.1,N/A,,Clear,350,2012-10-12 21:06:00
6:33 PM,50.0,33.8,54,30.33,10.0,NW,4.6,-,N/A,,Clear,320,2012-10-12 22:33:00
7:15 PM,44.6,37.4,76,30.34,10.0,Calm,Calm,-,N/A,,Clear,0,2012-10-12 23:15:00
7:36 PM,42.8,35.6,76,30.35,10.0,Calm,Calm,-,N/A,,Clear,0,2012-10-12 23:36:00
7:57 PM,42.8,37.4,81,30.37,10.0,Calm,Calm,-,N/A,,Clear,0,2012-10-12 23:57:00
8:18 PM,41.0,37.4,87,30.37,10.0,Calm,Calm,-,N/A,,Clear,0,2012-10-13 00:18:00
9:00 PM,39.2,35.6,87,30.39,10.0,Calm,Calm,-,N/A,,Clear,0,2012-10-13 01:00:00
9:21 PM,37.4,35.6,93,30.40,10.0,Calm,Calm,-,N/A,,Clear,0,2012-10-13 01:21:00
9:42 PM,37.4,35.6,93,30.42,10.0,Calm,Calm,-,N/A,,Clear,0,2012-10-13 01:42:00
10:03 PM,37.4,35.6,93,30.43,10.0,Calm,Calm,-,N/A,,Clear,0,2012-10-13 02:03:00
10:27 PM,35.6,35.6,100,30.44,10.0,Calm,Calm,-,N/A,,Clear,0,2012-10-13 02:27:00
10:48 PM,35.6,33.8,93,30.45,10.0,Calm,Calm,-,N/A,,Clear,0,2012-10-13 02:48:00
11:09 PM,35.6,33.8,93,30.46,10.0,Calm,Calm,-,N/A,,Clear,0,2012-10-13 03:09:00
11:30 PM,33.8,33.8,100,30.46,10.0,Calm,Calm,-,N/A,,Clear,0,2012-10-13 03:30:00
11:51 PM,33.8,33.8,100,30.46,10.0,Calm,Calm,-,N/A,,Clear,0,2012-10-13 03:51:00